KLM1831 EHAM-EDDS

Flight info

Callsign KLM1831
Flight time 1h 1m
Altitude 35000
Route EDUPO Z739 MISGO DCT DOJOH DCT DODEN DCT TABUM DCT FOLWU DCT UBENO N850 KRH T128 BADSO BADSO2A
Aircraft B737/M-SDE2E3FGHIRWXY/LB1

Departure

Time 2026-05-05 11:44
Airport Amsterdam Airport Schiphol (EHAM)

Arrival

Time 2026-05-05 12:46
Airport Stuttgart Airport (EDDS)
Time Latitude Longitude Altitude Speed Heading
2026-05-05 11:09 52.30546 4.76801 -2 ft 0 kts 293°
2026-05-05 11:32 52.30543 4.76809 -2 ft 4 kts 293°
2026-05-05 11:32 52.30533 4.76848 -2 ft 3 kts 293°
2026-05-05 11:33 52.30524 4.76881 -2 ft 4 kts 293°
2026-05-05 11:33 52.30518 4.76911 -2 ft 4 kts 231°
2026-05-05 11:33 52.30534 4.76916 -2 ft 4 kts 172°
2026-05-05 11:33 52.30560 4.76910 -2 ft 3 kts 172°
2026-05-05 11:34 52.30562 4.76910 -2 ft 1 kts 172°
2026-05-05 11:37 52.30554 4.76918 -2 ft 3 kts 143°
2026-05-05 11:37 52.30526 4.76950 -2 ft 7 kts 148°
2026-05-05 11:37 52.30470 4.76964 -2 ft 9 kts 211°
2026-05-05 11:37 52.30434 4.76883 -2 ft 9 kts 238°
2026-05-05 11:38 52.30398 4.76791 -2 ft 11 kts 238°
2026-05-05 11:38 52.30352 4.76670 -2 ft 14 kts 237°
2026-05-05 11:38 52.30294 4.76521 -2 ft 17 kts 237°
2026-05-05 11:38 52.30227 4.76343 -2 ft 20 kts 238°
2026-05-05 11:39 52.30149 4.76140 -2 ft 22 kts 238°
2026-05-05 11:39 52.30062 4.75915 -2 ft 24 kts 237°
2026-05-05 11:39 52.29970 4.75676 -2 ft 24 kts 238°
2026-05-05 11:39 52.29885 4.75452 -2 ft 22 kts 238°
2026-05-05 11:40 52.29832 4.75295 -2 ft 14 kts 256°
2026-05-05 11:40 52.29863 4.75156 -2 ft 13 kts 311°
2026-05-05 11:40 52.29924 4.75044 -2 ft 13 kts 311°
2026-05-05 11:40 52.29989 4.74921 -2 ft 15 kts 311°
2026-05-05 11:41 52.30064 4.74784 -1 ft 16 kts 312°
2026-05-05 11:41 52.30138 4.74647 9 ft 16 kts 311°
2026-05-05 11:41 52.30214 4.74506 9 ft 18 kts 311°
2026-05-05 11:41 52.30292 4.74360 7 ft 14 kts 310°
2026-05-05 11:42 52.30353 4.74244 -2 ft 11 kts 311°
2026-05-05 11:42 52.30370 4.74136 -2 ft 10 kts 256°
2026-05-05 11:42 52.30330 4.74046 -2 ft 10 kts 221°
2026-05-05 11:42 52.30276 4.73981 -2 ft 10 kts 215°
2026-05-05 11:43 52.30222 4.73917 -2 ft 10 kts 218°
2026-05-05 11:43 52.30188 4.73815 -3 ft 12 kts 276°
2026-05-05 11:43 52.30252 4.73743 -5 ft 13 kts
2026-05-05 11:43 52.30342 4.73751 -5 ft 13 kts
2026-05-05 11:44 52.30540 4.73770 -4 ft 60 kts
2026-05-05 11:44 52.31186 4.73829 -3 ft 123 kts
2026-05-05 11:44 52.32166 4.73923 280 ft 148 kts
2026-05-05 11:44 52.33211 4.74030 1004 ft 153 kts
2026-05-05 11:45 52.34290 4.74429 1546 ft 174 kts 25°
2026-05-05 11:45 52.35513 4.75297 1870 ft 207 kts 25°
2026-05-05 11:45 52.36942 4.76303 2179 ft 239 kts 25°
2026-05-05 11:45 52.38373 4.77743 2999 ft 244 kts 44°
2026-05-05 11:46 52.39551 4.79750 3979 ft 248 kts 45°
2026-05-05 11:46 52.40751 4.81803 4927 ft 252 kts 45°
2026-05-05 11:46 52.41903 4.84050 5668 ft 265 kts 62°
2026-05-05 11:46 52.42412 4.86965 6557 ft 271 kts 84°
2026-05-05 11:47 52.42478 4.90096 7428 ft 279 kts 90°
2026-05-05 11:47 52.42460 4.93308 8390 ft 284 kts 90°
2026-05-05 11:47 52.42363 4.96571 9370 ft 291 kts 102°
2026-05-05 11:47 52.41526 4.99573 10308 ft 295 kts 128°
2026-05-05 11:48 52.38127 5.04011 11407 ft 334 kts 147°
2026-05-05 11:48 52.36175 5.06169 12363 ft 341 kts 146°
2026-05-05 11:48 52.34200 5.08397 13416 ft 345 kts 146°
2026-05-05 11:49 52.32347 5.10924 14395 ft 350 kts 135°
2026-05-05 11:49 52.30727 5.13881 15365 ft 353 kts 131°
2026-05-05 11:49 52.29129 5.16975 16301 ft 357 kts 131°
2026-05-05 11:49 52.27501 5.20056 17285 ft 360 kts 133°
2026-05-05 11:50 52.25824 5.23138 18226 ft 364 kts 133°
2026-05-05 11:50 52.24134 5.26245 19011 ft 370 kts 131°
2026-05-05 11:50 52.22556 5.29610 19761 ft 377 kts 128°
2026-05-05 11:50 52.21060 5.33096 20525 ft 382 kts 127°
2026-05-05 11:51 52.19550 5.36687 21325 ft 386 kts 126°
2026-05-05 11:51 52.18018 5.40311 22095 ft 391 kts 127°
2026-05-05 11:51 52.16455 5.43964 22839 ft 396 kts 127°
2026-05-05 11:51 52.14863 5.47646 23621 ft 398 kts 127°
2026-05-05 11:52 52.13260 5.51328 24387 ft 398 kts 127°
2026-05-05 11:52 52.11645 5.55023 24993 ft 403 kts 128°
2026-05-05 11:52 52.10007 5.58763 25575 ft 408 kts 128°
2026-05-05 11:52 52.08347 5.62549 26186 ft 412 kts 128°
2026-05-05 11:53 52.06673 5.66356 26787 ft 416 kts 128°
2026-05-05 11:53 52.04914 5.70104 27373 ft 418 kts 133°
2026-05-05 11:53 52.03025 5.73630 27941 ft 421 kts 135°
2026-05-05 11:53 52.01058 5.77190 28504 ft 424 kts 135°
2026-05-05 11:54 51.99093 5.80797 29053 ft 428 kts 134°
2026-05-05 11:54 51.97129 5.84455 29640 ft 431 kts 134°
2026-05-05 11:54 51.95174 5.88109 30312 ft 429 kts 135°
2026-05-05 11:54 51.93223 5.91746 30943 ft 427 kts 135°
2026-05-05 11:55 51.91280 5.95362 31579 ft 424 kts 136°
2026-05-05 11:55 51.89347 5.98956 32190 ft 422 kts 136°
2026-05-05 11:55 51.87429 6.02515 32918 ft 416 kts 137°
2026-05-05 11:55 51.85531 6.06030 33567 ft 414 kts 137°
2026-05-05 11:56 51.83625 6.09532 34013 ft 414 kts 138°
2026-05-05 11:56 51.81712 6.13027 34372 ft 416 kts 137°
2026-05-05 11:56 51.79793 6.16532 34734 ft 417 kts 137°
2026-05-05 11:56 51.77865 6.20050 34915 ft 421 kts 137°
2026-05-05 11:57 51.73977 6.27147 34900 ft 420 kts 137°
2026-05-05 11:57 51.70145 6.34146 34908 ft 416 kts 137°
2026-05-05 11:58 51.66282 6.41172 34921 ft 421 kts 137°
2026-05-05 11:58 51.62370 6.48266 34904 ft 425 kts 137°
2026-05-05 11:59 51.59131 6.54130 34894 ft 418 kts 137°
2026-05-05 11:59 51.54664 6.62194 34899 ft 416 kts 137°
2026-05-05 12:00 51.50796 6.69156 34895 ft 418 kts 137°
2026-05-05 12:00 51.47562 6.74961 34873 ft 420 kts 137°
2026-05-05 12:01 51.43660 6.81952 34887 ft 421 kts 137°
2026-05-05 12:01 51.39729 6.88900 34882 ft 420 kts 139°
2026-05-05 12:02 51.35567 6.95455 34874 ft 418 kts 142°
2026-05-05 12:02 51.31369 7.01848 34874 ft 415 kts 142°
2026-05-05 12:03 51.27217 7.08208 34871 ft 411 kts 142°
2026-05-05 12:03 51.23128 7.14499 34874 ft 410 kts 142°
2026-05-05 12:04 51.19030 7.20801 34863 ft 408 kts 142°
2026-05-05 12:04 51.15003 7.26983 34873 ft 408 kts 142°
2026-05-05 12:05 51.10900 7.33261 34871 ft 409 kts 142°
2026-05-05 12:05 51.06798 7.39524 34864 ft 409 kts 142°
2026-05-05 12:06 51.02692 7.45777 34860 ft 409 kts 142°
2026-05-05 12:06 50.98610 7.51978 34863 ft 408 kts 142°
2026-05-05 12:07 50.94495 7.58215 34842 ft 408 kts 142°
2026-05-05 12:07 50.90398 7.64407 34857 ft 407 kts 142°
2026-05-05 12:08 50.86288 7.70604 34859 ft 408 kts 142°
2026-05-05 12:08 50.82164 7.76794 34857 ft 408 kts 143°
2026-05-05 12:09 50.78046 7.82917 34848 ft 408 kts 143°
2026-05-05 12:09 50.73901 7.89064 34862 ft 409 kts 143°
2026-05-05 12:10 50.69747 7.95214 34858 ft 409 kts 143°
2026-05-05 12:10 50.65593 8.01353 34849 ft 409 kts 143°
2026-05-05 12:11 50.61441 8.07471 34843 ft 409 kts 143°
2026-05-05 12:11 50.56954 8.12737 34846 ft 399 kts 153°
2026-05-05 12:12 50.52267 8.17371 34845 ft 397 kts 154°
2026-05-05 12:12 50.47604 8.22000 34841 ft 396 kts 153°
2026-05-05 12:13 50.42970 8.26638 34842 ft 395 kts 153°
2026-05-05 12:13 50.38334 8.31281 34840 ft 394 kts 153°
2026-05-05 12:14 50.33701 8.35911 34838 ft 395 kts 153°
2026-05-05 12:14 50.29045 8.40552 34845 ft 397 kts 153°
2026-05-05 12:15 50.24399 8.45129 34836 ft 398 kts 153°
2026-05-05 12:15 50.19689 8.49741 34833 ft 399 kts 153°
2026-05-05 12:16 50.14984 8.54347 34833 ft 399 kts 153°
2026-05-05 12:16 50.10271 8.58952 34832 ft 399 kts 153°
2026-05-05 12:17 50.05425 8.62943 34836 ft 388 kts 165°
2026-05-05 12:17 50.00212 8.64678 34837 ft 380 kts 177°
2026-05-05 12:18 49.94970 8.65502 34832 ft 378 kts 178°
2026-05-05 12:18 49.89776 8.66326 34832 ft 378 kts 177°
2026-05-05 12:19 49.84552 8.67190 34846 ft 377 kts 177°
2026-05-05 12:19 49.79320 8.68064 34834 ft 378 kts 176°
2026-05-05 12:20 49.74093 8.68892 34838 ft 377 kts 180°
2026-05-05 12:20 49.68882 8.68437 34845 ft 375 kts 187°
2026-05-05 12:21 49.63682 8.67696 34853 ft 375 kts 186°
2026-05-05 12:21 49.58485 8.66983 34851 ft 375 kts 186°
2026-05-05 12:22 49.53312 8.66292 34853 ft 375 kts 186°
2026-05-05 12:22 49.48113 8.65604 34856 ft 375 kts 186°
2026-05-05 12:23 49.42906 8.64916 34441 ft 378 kts 186°
2026-05-05 12:23 49.40296 8.64573 33901 ft 376 kts 185°
2026-05-05 12:23 49.37694 8.64231 33264 ft 375 kts 185°
2026-05-05 12:24 49.35119 8.63892 32803 ft 369 kts 185°
2026-05-05 12:24 49.32567 8.63556 32305 ft 365 kts 186°
2026-05-05 12:24 49.30056 8.63182 31839 ft 361 kts 186°
2026-05-05 12:24 49.27569 8.62786 31373 ft 359 kts 186°
2026-05-05 12:25 49.25093 8.62388 30915 ft 357 kts 186°
2026-05-05 12:25 49.22618 8.61993 30464 ft 359 kts 186°
2026-05-05 12:25 49.20144 8.61603 30013 ft 363 kts 185°
2026-05-05 12:25 49.17634 8.61210 29475 ft 362 kts 185°
2026-05-05 12:26 49.15144 8.60822 28968 ft 357 kts 185°
2026-05-05 12:26 49.12677 8.60442 28342 ft 356 kts 185°
2026-05-05 12:26 49.10225 8.60067 27841 ft 352 kts 185°
2026-05-05 12:26 49.07798 8.59697 27367 ft 348 kts 185°
2026-05-05 12:27 49.05398 8.59331 26882 ft 345 kts 185°
2026-05-05 12:27 49.03013 8.58967 26406 ft 342 kts 185°
2026-05-05 12:27 49.00646 8.58606 25952 ft 342 kts 185°
2026-05-05 12:27 48.98264 8.58466 25484 ft 342 kts 176°
2026-05-05 12:28 48.95884 8.58756 25030 ft 344 kts 175°
2026-05-05 12:28 48.93501 8.59082 24559 ft 343 kts 175°
2026-05-05 12:28 48.91128 8.59392 24093 ft 341 kts 175°
2026-05-05 12:28 48.88774 8.59689 23644 ft 340 kts 174°
2026-05-05 12:29 48.86516 8.60555 23111 ft 342 kts 156°
2026-05-05 12:29 48.84556 8.62587 22607 ft 344 kts 138°
2026-05-05 12:29 48.83110 8.65483 22122 ft 347 kts 121°
2026-05-05 12:29 48.82276 8.68934 21615 ft 352 kts 103°
2026-05-05 12:30 48.82121 8.72655 21154 ft 354 kts 94°
2026-05-05 12:30 48.82170 8.76393 20650 ft 354 kts 92°
2026-05-05 12:30 48.82256 8.80116 20156 ft 352 kts 92°
2026-05-05 12:30 48.82332 8.83836 19683 ft 351 kts 92°
2026-05-05 12:31 48.82384 8.87528 19212 ft 349 kts 92°
2026-05-05 12:31 48.82422 8.91207 18738 ft 348 kts 93°
2026-05-05 12:31 48.82454 8.94871 18265 ft 347 kts 93°
2026-05-05 12:31 48.82171 8.98454 17715 ft 339 kts 112°
2026-05-05 12:32 48.81039 9.01498 17248 ft 325 kts 134°
2026-05-05 12:32 48.79341 9.03621 16815 ft 312 kts 152°
2026-05-05 12:32 48.77371 9.04867 16343 ft 304 kts 168°
2026-05-05 12:32 48.75295 9.05064 15610 ft 306 kts 192°
2026-05-05 12:33 48.73468 9.03620 15076 ft 303 kts 223°
2026-05-05 12:33 48.72434 9.00884 14663 ft 302 kts 256°
2026-05-05 12:33 48.72404 8.97716 14341 ft 301 kts 269°
2026-05-05 12:33 48.72324 8.94553 13919 ft 303 kts 261°
2026-05-05 12:34 48.72012 8.91381 13481 ft 306 kts 257°
2026-05-05 12:34 48.71573 8.88258 13060 ft 298 kts 254°
2026-05-05 12:34 48.71078 8.85266 12665 ft 295 kts 253°
2026-05-05 12:34 48.70540 8.82271 12275 ft 295 kts 252°
2026-05-05 12:35 48.69975 8.79258 11829 ft 297 kts 251°
2026-05-05 12:35 48.69403 8.76256 11398 ft 296 kts 251°
2026-05-05 12:35 48.68826 8.73266 10956 ft 295 kts 251°
2026-05-05 12:35 48.68254 8.70297 10533 ft 293 kts 251°
2026-05-05 12:36 48.67677 8.67361 10113 ft 287 kts 251°
2026-05-05 12:36 48.67132 8.64567 9949 ft 273 kts 251°
2026-05-05 12:36 48.66409 8.61970 9784 ft 259 kts 230°
2026-05-05 12:36 48.65098 8.60201 9454 ft 263 kts 207°
2026-05-05 12:37 48.64040 8.59572 9239 ft 262 kts 193°
2026-05-05 12:37 48.63488 8.59401 9123 ft 262 kts 187°
2026-05-05 12:37 48.61682 8.59561 8752 ft 262 kts 167°
2026-05-05 12:38 48.59994 8.60563 8353 ft 265 kts 146°
2026-05-05 12:38 48.58781 8.62651 7981 ft 270 kts 120°
2026-05-05 12:38 48.58269 8.65405 7481 ft 277 kts 95°
2026-05-05 12:38 48.58533 8.68308 7021 ft 282 kts 77°
2026-05-05 12:39 48.59090 8.71158 6518 ft 282 kts 75°
2026-05-05 12:39 48.59666 8.73908 6312 ft 268 kts 75°
2026-05-05 12:39 48.60205 8.76551 6067 ft 257 kts 75°
2026-05-05 12:39 48.60709 8.79084 5853 ft 246 kts 76°
2026-05-05 12:40 48.61186 8.81508 5660 ft 236 kts 75°
2026-05-05 12:40 48.61642 8.83848 5460 ft 228 kts 76°
2026-05-05 12:40 48.62078 8.86098 5290 ft 218 kts 76°
2026-05-05 12:40 48.62495 8.88251 5126 ft 209 kts 76°
2026-05-05 12:41 48.62896 8.90323 4971 ft 200 kts 76°
2026-05-05 12:41 48.63277 8.92300 4775 ft 194 kts 75°
2026-05-05 12:41 48.63654 8.94259 4591 ft 192 kts 76°
2026-05-05 12:41 48.64019 8.96156 4405 ft 189 kts 75°
2026-05-05 12:42 48.64385 8.98053 4206 ft 188 kts 75°
2026-05-05 12:42 48.64754 8.99964 3994 ft 190 kts 76°
2026-05-05 12:42 48.65117 9.01863 3765 ft 185 kts 75°
2026-05-05 12:42 48.65469 9.03705 3535 ft 180 kts 75°
2026-05-05 12:43 48.65808 9.05480 3301 ft 172 kts 75°
2026-05-05 12:43 48.66133 9.07187 3068 ft 165 kts 75°
2026-05-05 12:43 48.66439 9.08786 2854 ft 153 kts 75°
2026-05-05 12:43 48.66717 9.10246 2694 ft 139 kts 75°
2026-05-05 12:44 48.66987 9.11652 2484 ft 139 kts 74°
2026-05-05 12:44 48.67251 9.13039 2316 ft 137 kts 73°
2026-05-05 12:44 48.67513 9.14427 2136 ft 139 kts 71°
2026-05-05 12:44 48.67795 9.15818 1953 ft 138 kts 69°
2026-05-05 12:45 48.68025 9.17254 1773 ft 142 kts 72°
2026-05-05 12:45 48.68291 9.18660 1522 ft 143 kts 67°
2026-05-05 12:45 48.68587 9.20118 1333 ft 147 kts 69°
2026-05-05 12:45 48.68859 9.21527 1254 ft 121 kts 72°
2026-05-05 12:46 48.69038 9.22455 1227 ft 63 kts 73°
2026-05-05 12:46 48.69106 9.22792 1220 ft 4 kts 67°
2026-05-05 12:46 48.69107 9.22794 1220 ft 0 kts 66°
2026-05-05 12:46 48.69108 9.22798 1220 ft 2 kts 66°
2026-05-05 12:47 48.69129 9.22868 1218 ft 12 kts 62°
2026-05-05 12:47 48.69199 9.23001 1216 ft 20 kts 45°
2026-05-05 12:47 48.69293 9.23137 1216 ft 14 kts 37°
2026-05-05 12:47 48.69383 9.23136 1220 ft 14 kts 322°
2026-05-05 12:48 48.69403 9.23006 1224 ft 13 kts 256°
2026-05-05 12:48 48.69386 9.22920 1226 ft 13 kts 253°
2026-05-05 12:48 48.69362 9.22791 1229 ft 13 kts 256°
2026-05-05 12:48 48.69338 9.22666 1231 ft 12 kts 253°
2026-05-05 12:49 48.69315 9.22544 1246 ft 12 kts 254°
2026-05-05 12:49 48.69292 9.22425 1246 ft 12 kts 254°
2026-05-05 12:49 48.69270 9.22309 1243 ft 11 kts 254°
2026-05-05 12:49 48.69249 9.22196 1253 ft 11 kts 254°
2026-05-05 12:50 48.69229 9.22087 1244 ft 10 kts 254°
2026-05-05 12:50 48.69209 9.21984 1253 ft 10 kts 253°
2026-05-05 12:50 48.69190 9.21884 1257 ft 10 kts 254°
2026-05-05 12:50 48.69172 9.21788 1258 ft 9 kts 254°
2026-05-05 12:51 48.69154 9.21692 1258 ft 10 kts 255°
2026-05-05 12:51 48.69134 9.21585 1265 ft 11 kts 252°
2026-05-05 12:51 48.69111 9.21467 1259 ft 12 kts 254°
2026-05-05 12:51 48.69087 9.21340 1265 ft 13 kts 254°
2026-05-05 12:52 48.69061 9.21206 1274 ft 14 kts 254°
2026-05-05 12:52 48.69031 9.21049 1271 ft 17 kts 254°
2026-05-05 12:52 48.68998 9.20868 1273 ft 19 kts 254°
2026-05-05 12:52 48.68957 9.20660 1279 ft 21 kts 253°
2026-05-05 12:53 48.68915 9.20436 1285 ft 23 kts 254°
2026-05-05 12:53 48.68871 9.20201 1290 ft 24 kts 254°
2026-05-05 12:53 48.68832 9.20020 1294 ft 10 kts 236°